Location: Albert Place
(40.7505°N, 111.9230°W)
Time: 13:28:16
(UTC+00:00)

Cosmos 158 Rocket - Pass Details

Date: 13 December 2025
Orbit: 695 x 785 km, 74.0° (Epoch: 17 January)

Event Time Altitude Azimuth Distance (km) Brightness Sun altitude
Rises 13:23:18 0° 218° (SW) 3,254 7.1 -14.7°
Reaches altitude 10° 13:25:50 10° 226° (SW) 2,324 6.2 -14.2°
Maximum altitude 13:30:47 40° 295° (WNW) 1,132 4.4 -13.3°
Drops below altitude 10° 13:35:40 10° 5° (N) 2,295 6.3 -12.4°
Sets 13:38:10 0° 13° (NNE) 3,210 7.1 -12.0°
